This is the latest recevied weather packets stored in our database for station/object KA6AKH-WX. If no packets are shown the sender has not sent any weather packets the latest 10 day(s).
| Time | Temp. | Humidity | Pressure | Rain* | Wind** | Luminosity | Snow |
|---|---|---|---|---|---|---|---|
| 1788385477 | 24.44° C | 93% | 1017.7 hPa | 0 mm | - | - | - |
| 1788384877 | 24.44° C | 93% | 1018 hPa | 0 mm | - | - | - |
| 1788384277 | 24.44° C | 94% | 1017.9 hPa | 0 mm | - | - | - |
| 1788383647 | 24.44° C | 95% | 1017.9 hPa | 0 mm | - | - | - |
| 1788383046 | 24.44° C | 94% | 1017.9 hPa | 0 mm | - | - | - |
| 1788382447 | 24.44° C | 94% | 1017.7 hPa | 0 mm | - | - | - |
| 1788381846 | 24.44° C | 94% | 1017.6 hPa | 0 mm | - | - | - |
| 1788381247 | 23.89° C | 94% | 1017.7 hPa | 0 mm | - | - | - |
| 1788380647 | 23.89° C | 94% | 1017.7 hPa | 0 mm | - | - | - |
| 1788380047 | 23.89° C | 94% | 1017.7 hPa | 0 mm | - | - | - |
| 1788379446 | 23.89° C | 93% | 1017.9 hPa | 0 mm | - | - | - |
| 1788378846 | 23.89° C | 93% | 1018.3 hPa | 0 mm | - | - | - |
| 1788378246 | 23.89° C | 93% | 1018.1 hPa | 0 mm | - | - | - |
| 1788377646 | 23.89° C | 93% | 1017.9 hPa | 0 mm | - | - | - |
| 1788377046 | 23.89° C | 92% | 1017.9 hPa | 0.25 mm | - | - | - |
| 1788376446 | 23.89° C | 93% | 1018 hPa | 0.25 mm | - | - | - |
| 1788375816 | 23.89° C | 92% | 1017.6 hPa | 0.25 mm | - | - | - |
| 1788375216 | 23.89° C | 92% | 1017.8 hPa | 0.25 mm | - | - | - |
| 1788374616 | 24.44° C | 92% | 1017.9 hPa | 0.25 mm | - | - | - |
| 1788374016 | 24.44° C | 90% | 1018.6 hPa | 0.25 mm | - | - | - |
| 1788373416 | 26.11° C | 81% | 1019.5 hPa | 0 mm | - | - | - |
| 1788372816 | 27.22° C | 68% | 1020.3 hPa | 0 mm | - | - | - |
| 1788372216 | 28.89° C | 61% | 1019.3 hPa | 0 mm | - | - | - |
| 1788371616 | 31.67° C | 60% | 1018.6 hPa | 0 mm | - | - | - |
| 1788371016 | 32.22° C | 58% | 1018.7 hPa | 0 mm | - | - | - |
* Rain latest hour (hover to see other rain measurements)
** Current wind speed in m/s (hover to see current wind gust speed)